SCP
0 -0 -0 -0 -0 -0 -0 -0 -0 -0 -0 -0 -0 -0 -0 -0 -0 -0 -0 -0 -0 -0 -0 0 0 0 0 -0 -0 -0 -0 -0 -0 -0 -0 -0 -0 -0 -0 -0 -0 -0 -0
-0 -0 -0 -0 -0 -0 -0 -0 -0 -0 -0 0 -0 -0 -0 -0 -0 -0 -0 -0 -0 -0 -0 -0 -0 0 0 0 0 -0 -0 -0 -0 -0 -0 -0 -0 -0 -0 -0 -0 -0 -0
-0 -0 -0 -0 -0 -0 -0 -0 -0 -0 -0 -0 -0 -0 -0 -0 -0 -0 -0 -0 -0 -0 -0 -0 -0 0 0 -0 -0 -0 -0 -0 0 0 0 -0 -0 -0 -0 -0 -0 -0 -0
0 0 0 -0 -0 -0 -0 -0 -0 -0 -0 -0 -0 -0 -0 -0 -0 -0 -0 -0 -0 -0 -0 -0 -0 -0 -0 -0 -0 -0 -0 -0 -0 -0 -0 0 0 0 0 0 -0 -0 -0
0 0 0 -0 -0 -0 -0 -0 -0 -0 -0 -0 -0 -0 -0 0 0 -0 -0 -0 -0 -0 0 0 0 0 -0 -0 -0 -0 -0 -0 -0 0 0 0 -0 0 0 0 0 0 0
-0 0 0 -0 -0 -0 -0 -0 -0 -0 -0 -0 -0 -0 0 0 0 0 -0 0 0 0 0 0 0 0 -0 -0 -0 -0 -0 -0 -0 -0 0 0 0 0 0 0 0 0 0
-0 0 0 -0 -0 -0 -0 -0 -0 -0 -0 -0 -0 -0 0 0 0 0 0 0 0 0 0 0 0 0 0 -0 -0 -0 -0 -0 -0 0 0 0 0 0 0 0 0 0 0
-0 -0 0 0 -0 -0 -0 -0 -0 -0 -0 -0 0 0 0 0 0 0 0 0 0 0 0 0 0 0 0 0 -0 -0 0 0 0 0 0 0 0 0 0 0 0 0 0
-0 -0 0 0 0 0 0 0 0 -0 0 0 0 0 0 0 0 0 0 0 0 0 0 0 0 0 0 0 0 -0 -0 -0 0 0 0 0 0 0 0 0 0 0 0
-0 -0 0 0 0 0 0 0 0 0 0 0 0 0 0 0 0 0 0 0 0 0 0 0 0 0 0 0 0 0 -0 -0 0 0 0 0 0 0 0 0 0 0 0
0 0 0 0 0 0 0 0 0 0 0 0 0 0 0 0 0 0 0 0 0 0 0 0 0 0 0 0 0 0 -0 0 0 0 0 0 0 -0 0 0 0 0 0
0 0 0 0 0 0 0 0 0 0 0 0 0 0 0 -0 0 0 0 0 0 0 0 0 0 0 0 0 0 0 0 0 0 0 0 0 0 0 0 0 0 0 0
0 0 0 0 0 0 0 0 0 0 0 0 0 0 -0 -0 0 0 0 0 0 0 0 0 0 0 0 0 0 0 0 0 0 0 0 0 0 0 0 0 0 0 0
0 0 -0 0 0 0 0 0 0 0 0 0 0 0 0 0 0 0 0 0 0 0 0 0 0 0 0 0 0 0 0 0 0 0 0 0 0 0 0 0 0 0 0
0 -0 -0 -0 -0 0 0 0 0 0 0 0 0 0 0 0 0 0 0 0 0 0 0 0 0 0 0 0 0 0 0 0 0 0 0 0 -0 0 0 0 0 0 0
-0 -0 -0 -0 0 0 0 0 0 0 0 0 0 0 0 0 0 0 0 0 0 0 0 0 0 0 0 0 0 0 0 0 0 0 0 0 0 0 0 0 0 0 0
-0 -0 -0 0 0 0 0 0 0 0 0 0 0 0 0 0 0 0 0 0 0 0 0 0 0 0 0 0 0 -0 0 0 0 0 0 0 0 0 0 0 0 0 0
-0 0 -0 0 0 0 1 1 1 1 0 0 0 1 0 0 1 1 1 0 0 0 0 0 0 0 0 0 0 0 0 0 0 0 0 0 0 0 0 0 0 0 0
0 1 1 1 1 1 1 1 1 1 1 1 1 1 1 1 1 1 1 0 0 0 0 0 0 0 0 0 0 0 0 0 0 0 0 0 0 0 0 0 -0 -0 0
0 -0 2 3 1 1 2 1 1 1 1 1 1 1 1 2 1 1 1 1 0 1 0 0 0 0 1 0 0 0 0 0 0 0 0 0 0 0 0 0 0 0 0
0 -0 2 4 3 3 2 2 2 1 0 0 1 1 1 2 3 2 1 2 1 1 1 1 0 0 0 1 0 0 0 0 0 0 0 0 -0 0 0 0 0 0 0
1 1 2 4 6 4 3 2 2 1 1 1 1 1 2 2 3 3 2 2 1 2 1 1 1 1 1 1 0 0 0 0 -0 0 0 -0 0 0 0 0 0 0 0
2 2 2 2 3 2 2 3 2 2 2 1 1 1 1 2 3 2 3 3 2 2 2 2 1 1 1 1 1 0 0 0 0 0 0 -0 0 0 0 0 0 0 0
4 5 5 4 1 1 1 2 2 3 2 2 2 2 2 3 3 4 3 3 3 2 2 2 1 2 1 1 1 0 0 0 0 0 0 0 0 0 0 0 0 0 0
1 2 2 3 3 4 2 1 1 2 4 2 2 3 3 2 3 4 5 5 3 3 2 2 2 2 2 1 1 0 0 0 0 0 0 0 0 0 0 0 0 0 0
0 1 0 0 1 1 2 3 3 3 4 3 3 2 2 2 4 2 3 5 1 0 0 1 1 1 2 2 1 0 0 0 0 0 0 0 0 0 0 0 0 0 0
Wind_Speed_500mb
49 45 42 40 37 36 35 33 33 33 33 34 34 33 33 33 32 32 33 34 33 36 39 42 44 44 44 45 46 48 48 51 54 54 45 33 31 35 29 18 24 23 21
50 51 46 43 39 36 33 31 31 30 30 31 32 31 31 30 30 30 30 31 31 32 36 39 43 45 46 50 52 53 53 52 50 49 47 38 30 23 18 19 25 26 27
56 54 49 47 42 37 33 30 29 27 28 29 29 29 28 27 28 27 27 27 28 29 31 36 41 44 46 46 48 50 49 45 40 36 38 39 30 29 28 28 28 30 30
55 54 52 49 43 39 35 31 28 26 26 27 26 26 25 25 25 25 24 24 24 26 28 31 34 39 42 43 45 45 43 37 33 27 28 28 31 32 33 33 33 34 31
56 53 52 51 45 39 35 31 28 25 25 25 24 23 22 22 22 22 21 21 21 21 23 25 28 31 34 37 42 41 39 35 28 24 27 29 31 33 35 35 33 32 30
55 54 52 49 45 40 35 32 28 26 24 23 23 21 20 20 20 19 19 18 17 17 17 18 22 24 28 31 34 35 32 25 26 27 28 31 30 32 32 31 31 31 32
58 55 53 48 45 41 37 33 30 26 24 23 21 20 19 19 18 17 16 15 14 14 11 12 14 18 21 24 28 28 28 22 20 28 31 28 26 27 27 27 28 29 31
53 56 53 50 44 41 37 34 31 27 24 22 20 18 16 16 15 14 12 11 9 8 8 8 7 10 13 16 19 19 26 20 15 12 22 31 27 24 24 24 25 25 27
37 49 51 50 45 42 40 38 34 30 26 23 20 18 15 14 13 12 10 9 6 4 4 4 2 3 5 8 11 14 18 18 6 12 11 26 31 25 22 20 20 20 22
37 30 48 51 49 44 42 39 36 32 28 23 21 18 15 12 10 10 8 6 4 1 1 1 4 4 4 3 4 10 17 20 9 6 6 21 24 31 26 19 17 16 18
36 23 49 48 47 45 43 41 37 33 30 27 23 20 17 13 9 7 7 4 1 2 5 4 7 9 9 6 3 6 11 16 18 18 18 21 24 30 33 23 17 13 12
37 26 37 44 45 43 42 40 39 36 32 28 23 20 17 13 11 4 6 2 8 10 11 11 9 10 13 6 12 10 11 18 20 18 26 27 26 28 29 26 20 15 12
38 37 27 46 47 46 44 40 38 33 32 29 26 23 19 18 13 8 7 2 9 17 7 13 6 8 15 6 11 11 10 14 11 22 25 25 26 25 25 30 24 18 15
50 36 26 26 35 39 34 31 29 31 33 29 27 26 26 22 17 21 20 13 8 7 11 11 13 7 7 6 15 17 15 12 15 14 15 17 25 28 25 26 26 22 19
49 50 45 33 32 37 32 28 21 19 31 18 22 23 26 33 27 27 28 21 13 21 16 15 9 11 12 8 10 21 17 20 22 20 21 21 29 29 27 28 23 23 22
28 62 68 46 41 47 40 35 26 17 21 16 15 13 12 26 39 33 33 35 29 25 21 18 16 15 17 19 23 21 21 22 25 21 21 21 24 23 25 24 20 21 23
84 75 78 51 44 46 48 33 35 20 15 25 25 22 21 24 31 40 36 35 37 34 23 24 19 19 30 30 25 26 26 22 29 28 29 27 28 21 27 22 20 21 25
73 89 61 44 45 37 63 51 43 40 33 32 32 34 37 38 38 38 45 48 38 34 36 37 33 42 38 35 29 32 20 29 28 30 30 33 30 21 17 19 20 20 25
70 46 46 46 42 36 34 64 53 49 49 47 45 48 47 51 51 44 52 52 47 42 43 44 39 31 39 35 34 31 30 33 29 35 37 41 20 23 15 11 16 24 23
40 37 50 44 37 32 28 29 56 61 56 50 46 50 51 55 55 51 47 56 52 51 50 51 43 39 37 37 38 33 34 27 30 34 38 37 21 20 15 16 16 20 21
36 44 51 46 40 37 34 37 35 44 50 54 52 45 62 59 60 59 58 50 50 60 56 57 49 42 40 45 44 38 39 37 38 34 21 18 17 8 15 18 15 18 17
54 53 43 40 42 41 45 41 38 32 35 43 42 48 51 60 64 66 66 60 53 58 54 55 47 48 47 49 48 35 34 35 38 25 25 23 19 28 19 9 11 15 15
44 50 52 50 50 54 54 41 31 30 30 36 49 50 53 56 68 73 70 65 51 56 58 51 49 54 57 52 43 30 15 21 7 18 29 24 22 9 23 11 13 17 12
29 35 44 49 51 48 49 53 51 53 53 50 48 43 54 65 64 72 71 70 59 55 61 55 53 48 52 51 50 51 45 28 10 10 26 25 23 12 19 14 12 16 22
12 16 19 23 27 38 51 44 50 51 46 43 45 57 56 55 75 81 84 78 70 60 64 60 57 54 49 47 49 51 45 42 34 29 21 34 31 21 23 17 16 12 17
16 19 21 20 23 18 18 30 34 40 45 50 57 56 57 52 37 61 80 85 41 27 47 45 47 52 53 46 46 42 46 41 39 33 27 30 31 33 27 31 21 16 15
Wind_Direction_500mb
158 157 151 146 139 131 123 118 113 108 106 104 103 102 102 104 104 101 95 89 88 80 74 69 68 70 77 85 88 84 79 74 70 63 55 63 75 91 100 59 60 63 54
162 159 154 152 145 135 130 127 118 111 108 103 101 102 102 102 102 102 97 91 89 85 78 73 71 72 82 86 85 80 72 65 57 50 49 46 64 72 61 48 52 54 49
160 158 156 156 150 141 136 132 123 116 111 106 103 103 105 106 106 105 101 95 89 87 79 74 72 72 84 88 85 79 73 66 60 55 43 34 52 62 63 59 55 55 51
161 159 157 157 154 148 143 136 129 125 119 111 108 107 109 110 110 108 106 101 93 88 85 79 78 76 85 87 84 79 73 71 75 71 50 31 49 56 58 56 52 50 48
164 160 159 157 156 153 146 139 137 134 125 119 115 114 115 116 114 111 109 108 103 95 89 82 80 80 83 87 87 85 80 75 71 46 42 52 53 56 55 54 52 51 50
164 160 160 159 157 155 151 145 144 140 134 126 119 121 123 122 119 117 112 112 113 104 94 87 84 84 84 92 95 94 91 88 69 61 53 52 51 52 55 57 56 54 52
165 163 161 162 162 159 155 153 150 147 142 137 133 133 132 130 126 123 120 121 120 116 107 93 85 85 89 95 105 105 105 101 69 58 51 48 46 49 51 52 55 54 52
162 167 165 164 165 163 160 157 155 154 151 147 145 141 140 136 131 131 124 114 116 124 132 115 103 94 95 102 116 119 113 105 70 36 38 28 28 31 37 40 46 49 50
164 172 170 167 169 169 165 163 161 160 160 158 154 154 151 150 145 145 140 134 129 101 131 133 149 127 119 113 111 115 130 127 134 41 359 358 13 11 15 23 31 39 43
177 184 181 173 172 172 170 168 168 164 165 163 168 166 165 167 162 164 163 153 135 88 20 325 254 242 234 208 122 116 155 152 150 262 250 335 341 359 354 355 10 23 32
177 191 187 180 176 177 175 174 175 172 171 174 179 177 181 181 181 196 185 194 215 279 273 291 285 274 268 260 195 160 164 179 176 231 257 312 328 336 343 338 341 356 9
177 188 195 187 183 181 183 183 182 180 182 183 183 187 190 190 172 183 179 356 326 318 301 300 297 313 304 296 207 173 160 323 218 244 248 275 315 323 335 334 330 326 330
192 193 193 192 189 189 189 189 191 188 194 194 193 193 195 200 192 251 304 63 40 5 316 325 322 65 51 35 290 266 284 14 223 263 217 253 305 311 327 331 321 308 305
175 196 197 187 186 192 181 195 205 203 205 205 208 203 198 211 215 231 269 255 268 330 342 348 349 340 329 322 309 325 317 288 266 289 297 259 306 313 319 324 318 306 299
161 192 201 197 185 190 193 203 219 235 216 199 226 218 212 201 207 225 253 246 259 260 261 272 296 327 299 283 294 298 303 300 277 291 306 288 324 315 306 306 324 309 296
248 193 202 197 189 195 198 203 221 231 201 204 237 231 221 220 209 210 239 240 250 246 247 268 261 294 268 272 269 260 262 273 275 286 285 282 301 318 309 303 324 329 314
160 183 198 197 197 200 206 202 207 209 221 235 243 252 253 250 232 225 235 239 237 242 245 246 238 253 242 262 283 261 259 266 271 287 272 281 300 294 296 299 331 334 330
185 191 185 197 199 206 204 198 195 201 209 226 223 247 254 252 254 252 233 240 240 241 235 240 239 241 245 255 260 268 256 256 256 265 262 267 266 290 304 302 323 329 324
167 170 190 201 211 216 206 210 205 200 205 214 226 231 239 248 249 250 253 238 237 235 238 243 246 241 238 255 253 258 266 255 267 257 254 266 255 294 322 303 316 306 324
207 199 188 197 214 227 233 224 218 217 211 216 223 226 232 245 258 258 262 252 230 233 240 242 243 240 246 248 251 260 274 255 272 276 262 264 256 257 285 283 297 307 334
184 194 202 199 201 220 228 232 237 225 221 225 228 235 229 244 254 257 262 261 243 228 239 250 254 242 240 249 256 265 272 273 274 261 239 255 249 252 232 261 295 306 337
177 186 193 200 208 220 238 244 242 249 252 234 242 241 236 237 246 253 259 260 251 235 242 248 250 247 246 246 250 257 266 261 247 258 242 232 225 250 242 262 261 292 310
189 187 195 197 203 207 215 230 243 247 249 244 246 252 246 244 245 251 256 259 257 238 240 249 249 246 253 258 251 242 227 237 204 261 205 205 225 196 208 197 221 273 286
175 192 201 203 206 210 214 216 226 231 238 245 250 258 264 254 256 257 259 259 257 242 241 244 249 251 257 259 261 250 243 242 263 238 192 209 208 223 202 211 258 281 301
163 164 166 181 198 218 227 223 220 225 233 240 246 248 250 256 257 260 257 257 259 247 240 242 243 250 256 261 264 249 242 247 246 240 215 210 208 189 201 197 241 249 297
95 106 128 145 143 160 192 218 221 229 228 234 238 247 248 262 272 263 256 250 194 8 278 253 265 260 256 261 261 252 245 241 241 224 218 203 211 199 204 209 226 241 288
Wind_Speed_850mb
49 45 42 40 37 36 35 33 33 33 33 34 34 33 33 33 32 32 33 34 33 36 39 42 44 44 44 45 46 48 48 51 54 54 45 33 31 35 29 18 24 23 21
50 51 46 43 39 36 33 31 31 30 30 31 32 31 31 30 30 30 30 31 31 32 36 39 43 45 46 50 52 53 53 52 50 49 47 38 30 23 18 19 25 26 27
56 54 49 47 42 37 33 30 29 27 28 29 29 29 28 27 28 27 27 27 28 29 31 36 41 44 46 46 48 50 49 45 40 36 38 39 30 29 28 28 28 30 30
55 54 52 49 43 39 35 31 28 26 26 27 26 26 25 25 25 25 24 24 24 26 28 31 34 39 42 43 45 45 43 37 33 27 28 28 31 32 33 33 33 34 31
56 53 52 51 45 39 35 31 28 25 25 25 24 23 22 22 22 22 21 21 21 21 23 25 28 31 34 37 42 41 39 35 28 24 27 29 31 33 35 35 33 32 30
55 54 52 49 45 40 35 32 28 26 24 23 23 21 20 20 20 19 19 18 17 17 17 18 22 24 28 31 34 35 32 25 26 27 28 31 30 32 32 31 31 31 32
58 55 53 48 45 41 37 33 30 26 24 23 21 20 19 19 18 17 16 15 14 14 11 12 14 18 21 24 28 28 28 22 20 28 31 28 26 27 27 27 28 29 31
53 56 53 50 44 41 37 34 31 27 24 22 20 18 16 16 15 14 12 11 9 8 8 8 7 10 13 16 19 19 26 20 15 12 22 31 27 24 24 24 25 25 27
37 49 51 50 45 42 40 38 34 30 26 23 20 18 15 14 13 12 10 9 6 4 4 4 2 3 5 8 11 14 18 18 6 12 11 26 31 25 22 20 20 20 22
37 30 48 51 49 44 42 39 36 32 28 23 21 18 15 12 10 10 8 6 4 1 1 1 4 4 4 3 4 10 17 20 9 6 6 21 24 31 26 19 17 16 18
36 23 49 48 47 45 43 41 37 33 30 27 23 20 17 13 9 7 7 4 1 2 5 4 7 9 9 6 3 6 11 16 18 18 18 21 24 30 33 23 17 13 12
37 26 37 44 45 43 42 40 39 36 32 28 23 20 17 13 11 4 6 2 8 10 11 11 9 10 13 6 12 10 11 18 20 18 26 27 26 28 29 26 20 15 12
38 37 27 46 47 46 44 40 38 33 32 29 26 23 19 18 13 8 7 2 9 17 7 13 6 8 15 6 11 11 10 14 11 22 25 25 26 25 25 30 24 18 15
50 36 26 26 35 39 34 31 29 31 33 29 27 26 26 22 17 21 20 13 8 7 11 11 13 7 7 6 15 17 15 12 15 14 15 17 25 28 25 26 26 22 19
49 50 45 33 32 37 32 28 21 19 31 18 22 23 26 33 27 27 28 21 13 21 16 15 9 11 12 8 10 21 17 20 22 20 21 21 29 29 27 28 23 23 22
28 62 68 46 41 47 40 35 26 17 21 16 15 13 12 26 39 33 33 35 29 25 21 18 16 15 17 19 23 21 21 22 25 21 21 21 24 23 25 24 20 21 23
84 75 78 51 44 46 48 33 35 20 15 25 25 22 21 24 31 40 36 35 37 34 23 24 19 19 30 30 25 26 26 22 29 28 29 27 28 21 27 22 20 21 25
73 89 61 44 45 37 63 51 43 40 33 32 32 34 37 38 38 38 45 48 38 34 36 37 33 42 38 35 29 32 20 29 28 30 30 33 30 21 17 19 20 20 25
70 46 46 46 42 36 34 64 53 49 49 47 45 48 47 51 51 44 52 52 47 42 43 44 39 31 39 35 34 31 30 33 29 35 37 41 20 23 15 11 16 24 23
40 37 50 44 37 32 28 29 56 61 56 50 46 50 51 55 55 51 47 56 52 51 50 51 43 39 37 37 38 33 34 27 30 34 38 37 21 20 15 16 16 20 21
36 44 51 46 40 37 34 37 35 44 50 54 52 45 62 59 60 59 58 50 50 60 56 57 49 42 40 45 44 38 39 37 38 34 21 18 17 8 15 18 15 18 17
54 53 43 40 42 41 45 41 38 32 35 43 42 48 51 60 64 66 66 60 53 58 54 55 47 48 47 49 48 35 34 35 38 25 25 23 19 28 19 9 11 15 15
44 50 52 50 50 54 54 41 31 30 30 36 49 50 53 56 68 73 70 65 51 56 58 51 49 54 57 52 43 30 15 21 7 18 29 24 22 9 23 11 13 17 12
29 35 44 49 51 48 49 53 51 53 53 50 48 43 54 65 64 72 71 70 59 55 61 55 53 48 52 51 50 51 45 28 10 10 26 25 23 12 19 14 12 16 22
12 16 19 23 27 38 51 44 50 51 46 43 45 57 56 55 75 81 84 78 70 60 64 60 57 54 49 47 49 51 45 42 34 29 21 34 31 21 23 17 16 12 17
16 19 21 20 23 18 18 30 34 40 45 50 57 56 57 52 37 61 80 85 41 27 47 45 47 52 53 46 46 42 46 41 39 33 27 30 31 33 27 31 21 16 15
Wind_Direction_850mb
158 157 151 146 139 131 123 118 113 108 106 104 103 102 102 104 104 101 95 89 88 80 74 69 68 70 77 85 88 84 79 74 70 63 55 63 75 91 100 59 60 63 54
162 159 154 152 145 135 130 127 118 111 108 103 101 102 102 102 102 102 97 91 89 85 78 73 71 72 82 86 85 80 72 65 57 50 49 46 64 72 61 48 52 54 49
160 158 156 156 150 141 136 132 123 116 111 106 103 103 105 106 106 105 101 95 89 87 79 74 72 72 84 88 85 79 73 66 60 55 43 34 52 62 63 59 55 55 51
161 159 157 157 154 148 143 136 129 125 119 111 108 107 109 110 110 108 106 101 93 88 85 79 78 76 85 87 84 79 73 71 75 71 50 31 49 56 58 56 52 50 48
164 160 159 157 156 153 146 139 137 134 125 119 115 114 115 116 114 111 109 108 103 95 89 82 80 80 83 87 87 85 80 75 71 46 42 52 53 56 55 54 52 51 50
164 160 160 159 157 155 151 145 144 140 134 126 119 121 123 122 119 117 112 112 113 104 94 87 84 84 84 92 95 94 91 88 69 61 53 52 51 52 55 57 56 54 52
165 163 161 162 162 159 155 153 150 147 142 137 133 133 132 130 126 123 120 121 120 116 107 93 85 85 89 95 105 105 105 101 69 58 51 48 46 49 51 52 55 54 52
162 167 165 164 165 163 160 157 155 154 151 147 145 141 140 136 131 131 124 114 116 124 132 115 103 94 95 102 116 119 113 105 70 36 38 28 28 31 37 40 46 49 50
164 172 170 167 169 169 165 163 161 160 160 158 154 154 151 150 145 145 140 134 129 101 131 133 149 127 119 113 111 115 130 127 134 41 359 358 13 11 15 23 31 39 43
177 184 181 173 172 172 170 168 168 164 165 163 168 166 165 167 162 164 163 153 135 88 20 325 254 242 234 208 122 116 155 152 150 262 250 335 341 359 354 355 10 23 32
177 191 187 180 176 177 175 174 175 172 171 174 179 177 181 181 181 196 185 194 215 279 273 291 285 274 268 260 195 160 164 179 176 231 257 312 328 336 343 338 341 356 9
177 188 195 187 183 181 183 183 182 180 182 183 183 187 190 190 172 183 179 356 326 318 301 300 297 313 304 296 207 173 160 323 218 244 248 275 315 323 335 334 330 326 330
192 193 193 192 189 189 189 189 191 188 194 194 193 193 195 200 192 251 304 63 40 5 316 325 322 65 51 35 290 266 284 14 223 263 217 253 305 311 327 331 321 308 305
175 196 197 187 186 192 181 195 205 203 205 205 208 203 198 211 215 231 269 255 268 330 342 348 349 340 329 322 309 325 317 288 266 289 297 259 306 313 319 324 318 306 299
161 192 201 197 185 190 193 203 219 235 216 199 226 218 212 201 207 225 253 246 259 260 261 272 296 327 299 283 294 298 303 300 277 291 306 288 324 315 306 306 324 309 296
248 193 202 197 189 195 198 203 221 231 201 204 237 231 221 220 209 210 239 240 250 246 247 268 261 294 268 272 269 260 262 273 275 286 285 282 301 318 309 303 324 329 314
160 183 198 197 197 200 206 202 207 209 221 235 243 252 253 250 232 225 235 239 237 242 245 246 238 253 242 262 283 261 259 266 271 287 272 281 300 294 296 299 331 334 330
185 191 185 197 199 206 204 198 195 201 209 226 223 247 254 252 254 252 233 240 240 241 235 240 239 241 245 255 260 268 256 256 256 265 262 267 266 290 304 302 323 329 324
167 170 190 201 211 216 206 210 205 200 205 214 226 231 239 248 249 250 253 238 237 235 238 243 246 241 238 255 253 258 266 255 267 257 254 266 255 294 322 303 316 306 324
207 199 188 197 214 227 233 224 218 217 211 216 223 226 232 245 258 258 262 252 230 233 240 242 243 240 246 248 251 260 274 255 272 276 262 264 256 257 285 283 297 307 334
184 194 202 199 201 220 228 232 237 225 221 225 228 235 229 244 254 257 262 261 243 228 239 250 254 242 240 249 256 265 272 273 274 261 239 255 249 252 232 261 295 306 337
177 186 193 200 208 220 238 244 242 249 252 234 242 241 236 237 246 253 259 260 251 235 242 248 250 247 246 246 250 257 266 261 247 258 242 232 225 250 242 262 261 292 310
189 187 195 197 203 207 215 230 243 247 249 244 246 252 246 244 245 251 256 259 257 238 240 249 249 246 253 258 251 242 227 237 204 261 205 205 225 196 208 197 221 273 286
175 192 201 203 206 210 214 216 226 231 238 245 250 258 264 254 256 257 259 259 257 242 241 244 249 251 257 259 261 250 243 242 263 238 192 209 208 223 202 211 258 281 301
163 164 166 181 198 218 227 223 220 225 233 240 246 248 250 256 257 260 257 257 259 247 240 242 243 250 256 261 264 249 242 247 246 240 215 210 208 189 201 197 241 249 297
95 106 128 145 143 160 192 218 221 229 228 234 238 247 248 262 272 263 256 250 194 8 278 253 265 260 256 261 261 252 245 241 241 224 218 203 211 199 204 209 226 241 288